063  
ASUS43 KFSD 150302  
RWRFSD  
 
WEATHER ROUNDUP FOR SE SOUTH DAKOTA/SW MINNESOTA/NW IOWA  
NATIONAL WEATHER SERVICE SIOUX FALLS SD  
1000 PM CDT SUN AUG 14 2022  
 
NOTE: "FAIR" INDICATES FEW OR NO CLOUDS BELOW 12,000 FEET WITH NO  
SIGNIFICANT WEATHER AND OR S TO VISIBILITY
.  
 
 
SDZ038>040-050-052>070-150400-  
SOUTHEAST SOUTH DAKOTA  
 
CITY SKY/WX TMP DP RH WIND PRES REMARKS
 
BROOKINGS CLOUDY 67 65 93 S10 30.04R  
CHAMBERLAIN MOCLDY 67 67 100 E5 30.02R  
HURON MOCLDY 70 61 73 S7 29.99R  
MADISON N/A 66 66 100 S8 30.04R  
MITCHELL CLOUDY 68 63 84 E6 30.01R  
SIOUX FALLS CLOUDY 70 62 76 SE9 30.04R  
WINNER CLOUDY 74 62 66 SE9 29.98R  
YANKTON CLOUDY 69 64 84 E6 30.01S  

 
 
MNZ071-072-080-081-089-090-097-098-150400-  
SOUTHWEST MINNESOTA  
 
CITY SKY/WX TMP DP RH WIND PRES REMARKS
 
FAIRMONT CLOUDY 66 64 93 SE8 30.05R  
JACKSON CLOUDY 64 61 88 SE5 30.06R  
LUVERNE CLOUDY 64 63 94 CALM 30.05R  
MARSHALL MOCLDY 67 64 90 SE8 30.04R  
MONTEVIDEO MOCLDY 68 63 83 S3 30.03R  
REDWOOD FALLS MOCLDY 67 63 87 S5 30.03R  
TRACY MOCLDY 67 62 83 S3 30.05R  
WINDOM CLOUDY 66 61 82 CALM 30.04S  
WORTHINGTON CLOUDY 65 63 93 S5 30.06R  

 
 
IAZ001>003-012>014-020>022-031-032-NEZ013-014-SDZ071-150400-  
NORTHWEST IOWA  
 
CITY SKY/WX TMP DP RH WIND PRES REMARKS
 
CHEROKEE CLOUDY 65 65 97 CALM 30.04R  
DENISON CLOUDY 68 68 100 E7 30.04R  
ESTHERVILLE CLOUDY 66 63 90 SE5 30.04R  
LE MARS CLOUDY 68 64 88 SE5G12 30.01F  
MAURICE FAIR 64 64 100 E5 30.02R  
SHELDON MOCLDY 64 64 100 SE3 30.03R  
SIOUX CITY CLOUDY 69 64 84 E7 30.02R  
SPENCER MOCLDY 66 61 84 SE7 30.04S  
STORM LAKE CLOUDY 64 64 100 SE7 30.04S  

 
 
ABBREVIATIONS USED IN REMARKS  
TC - TEMPERATURE IN CELSIUS  
WCI - WIND CHILL INDEX  
HX - HEAT INDEX  
VSB - VISIBILITY  
 
 
 
CLICK HERE TO GO TO PREVIOUS BULLETINS.

The Nexlab SD Page
The Nexlab IA Page
The Nexlab MN Page
The Nexlab NE Page Main Text Page